Regional Weather Roundup
Issued by NWS

Home | Current Version | Previous Version | Graphics & Text | Print | Product List | Glossary On
Versions: 1 2 3 4 5 6 7 8 9 10 11 12 13 14 15 16 17 18 19 20 21 22 23 24 25 26 27 28 29 30 31 32 33 34 35 36 37 38 39 40 41 42 43 44 45 46 47 48 49 50
000
ASUS43 KDTX 310310
RWRMI
MICHIGAN HOURLY REGIONAL WEATHER ROUNDUP
NATIONAL WEATHER SERVICE DETROIT/PONTIAC MI
1000 PM EST FRI JAN 30 2015

NOTE: "FAIR" INDICATES FEW OR NO CLOUDS BELOW 12,000 FEET WITH NO
SIGNIFICANT WEATHER AND/OR OBSTRUCTION TO VISIBILITY.

MIZ047>049-052>055-059>063-066>070-074>076-081>083-310400-
SOUTHEAST LOWER MICHIGAN

CITY           SKY/WX    TMP DP  RH WIND       PRES   REMARKS
ADRIAN         CLEAR     14   8  77 CALM      30.42S
ALMA           CLOUDY    14  10  85 SW3       30.37F
ANN ARBOR      MOCLDY     9   5  84 CALM      30.40F
BAD AXE        MOCLDY     3  -1  84 CALM      30.38F
CARO           CLOUDY     9   3  77 CALM      30.38F
DETROIT CITY   MOCLDY    14   1  56 S6        30.42F WCI   5
DETROIT        PTCLDY    13   3  64 E3        30.43F
FLINT          MOCLDY    16   5  62 S6        30.38F WCI   7
GROSSE ILE     MOCLDY    10   1  67 CALM      30.42S
HILLSDALE      MOCLDY    12   6  76 CALM      30.37S
HOWELL         MOCLDY    13   7  74 CALM      30.37F

CITY           SKY/WX    TMP DP  RH WIND       PRES   REMARKS
JACKSON        CLOUDY    14   9  80 SW3       30.38F
LAMBERTVILLE   PTCLDY    14   9  79 CALM      30.42F
LANSING        PTCLDY    18   9  68 SW8       30.38F WCI   8
LAPEER         CLOUDY     7   2  82 CALM      30.39S
MASON          MOCLDY    15  10  81 CALM      30.38F
MONROE         PTCLDY    16   9  73 CALM      30.41F
MT. CLEMENS    MOCLDY     8   3  78 S3        30.40S
PONTIAC        CLOUDY    12   4  70 CALM      30.37F
PORT HOPE        N/A      9  -1  64 SW6       30.38F WCI  -1
PORT HURON     CLOUDY     1  -2  85 CALM      30.42S
TRI CITIES     CLOUDY    17   6  62 S5        30.38F WCI  10
TROY           MOCLDY    17   6  61 S3        30.42F
SAGINAW HB     MOCLDY    16   9  73 S3        30.38F
$$
MIZ043>046-050>051-056>058-064>065-071>073-077>080-310400-
SOUTHWEST LOWER MICHIGAN

CITY           SKY/WX    TMP DP  RH WIND       PRES   REMARKS
BATTLE CREEK   CLOUDY    20  12  71 CALM      30.39F
BENTON HARBOR  PTCLDY    18  13  80 S3        30.41F
BIG RAPIDS     PTCLDY    11   6  82 CALM      30.34F
COLDWATER      CLOUDY    18  12  79 CALM      30.39F
FREMONT        FAIR      13   7  78 CALM      30.36F
HOLLAND        PTCLDY    21  14  74 S5        30.39F WCI  15
GRAND RAPIDS   MOCLDY    18  11  74 S5        30.38F WCI  11
IONIA          FAIR      19  11  73 W3        30.37F
KALAMAZOO      PTCLDY    21  12  68 SW3       30.40F
LUDINGTON      MOCLDY    16  10  77 CALM      30.35F
MARSHALL       CLOUDY    13   9  81 CALM      30.38F
MOUNT PLEASANT PTCLDY    12   6  77 CALM      30.37S
MUSKEGON       PTCLDY    18  10  71 SE6       30.38F WCI  10
SOUTH HAVEN    PTCLDY    22  15  75 S3        30.40S
$$
MIZ016>042-310400-
NORTHERN LOWER MICHIGAN

CITY           SKY/WX    TMP DP  RH WIND       PRES   REMARKS
ALPENA         CLOUDY     8   2  76 S3        30.36S
BEAVER ISLAND  PTCLDY    15   7  70 CALM      30.31F
CADILLAC       PTCLDY     6   2  85 CALM      30.29F
CHARLEVOIX     CLOUDY    17  10  72 CALM      30.36S
FRANKFORT      CLOUDY    21  14  74 SW5       30.34F WCI  14
GAYLORD        CLOUDY    13   8  81 SW8       30.28F WCI   2
GRAYLING       MOCLDY    11   6  79 CALM      30.31F
HARBOR SPRINGS FLURRIES  15  10  82 CALM      30.32F
HOUGHTON LAKE  PTCLDY     9   5  84 S3        30.32F
MANISTEE       CLOUDY    12   9  85 CALM      30.36S
OSCODA         CLOUDY     8   2  78 CALM      30.36F
PELLSTON       CLOUDY    12   7  80 SE3       30.33F
ROGERS CITY    CLOUDY    12   7  79 S3        30.35F
TRAVERSE CITY  MOCLDY    14   7  73 CALM      30.34F
$$
MIZ007>008-015-310400-
EASTERN UPPER MICHIGAN

CITY           SKY/WX    TMP DP  RH WIND       PRES   REMARKS
KINROSS        PTCLDY    10   9  92 SW3       30.29F
MACKINAC ISLAN MOCLDY    15   8  72 W5        30.30F WCI   8
NEWBERRY       MOCLDY     6   4  94 S5        30.27F WCI  -3
S. S. MARIE    CLOUDY    10   2  69 CALM      30.29F
MUNISING         N/A     15   4  61 S10       30.27F WCI   2
$$
MIZ004>006-011>014-085-310400-
CENTRAL UPPER MICHIGAN

CITY           SKY/WX    TMP DP  RH WIND       PRES   REMARKS
MANISTIQUE     MOCLDY     8   4  83 CALM      30.29F
ESCANABA       CLOUDY    18   9  68 SW9       30.30S WCI   6
MENOMINEE      CLOUDY    18   7  62 SW7       30.30F WCI   8
SAWYER-GWINN   CLOUDY    14   3  62 S9        30.22F WCI   2
$$
MIZ001>003-009>011-084-310400-
WESTERN UPPER MICHIGAN

CITY           SKY/WX    TMP DP  RH WIND       PRES   REMARKS
IRON MOUNTAIN  CLOUDY    17   4  56 SW6       30.22F WCI   9
HOUGHTON       CLOUDY    15   5  64 SW5       30.17F WCI   8
COPPER HARBOR    N/A     16   6  65 W3        30.21F
IRONWOOD       CLOUDY    18   3  53 SW10      30.16R WCI   6
$$

ABBREVIATIONS USED IN REMARKS
   TC - TEMPERATURE IN CELSIUS
  WCI - WIND CHILL INDEX
   HX - HEAT INDEX
  VSB - VISIBILITY




USA.gov is the U.S. government's official web portal to all federal, state and local government web resources and services.